Weather History for Lufkin, TX

Change the Weather History Date:

Monday, September 2, 2013

  Actual Average Record
Temperature  
Mean Temperature 85 °F 81 °F  
Max Temperature 98 °F 92 °F 108 °F (2000)
Min Temperature 72 °F 70 °F 56 °F (1919)
Degree Days  
Heating Degree Days 0 0  
Month to date heating degree days 0 0  
Since 1 July heating degree days 0 0  
Cooling Degree Days 20 16  
Month to date cooling degree days 39 32  
Year to date cooling degree days 2206 2055  
Growing Degree Days 35 (Base 50)    
Moisture  
Dew Point 72 °F    
Average Humidity 69    
Maximum Humidity 100    
Minimum Humidity 38    
Precipitation  
Precipitation 0.00 in 0.14 in 2.00 in (1913)
Month to date precipitation 0.00 0.28  
Year to date precipitation 25.90 30.87  
Snow  
Snow 0.00 in - - ()
Month to date snowfall 0.0  
Since 1 July snowfall 0.0  
Since 1 September snowfall 0.0  
Snow Depth 0.00 in    
Sea Level Pressure  
Sea Level Pressure 29.90 in    
Wind  
Wind Speed 3 mph (SE)    
Max Wind Speed 15 mph    
Max Gust Speed 21 mph    
Visibility 10 miles    
Events Thunderstorm    
T = Trace of Precipitation, MM = Missing Value Source: NWS Daily Summary

Daily Weather History Graph

Daily Weather History Graph

Search for Another Location

Airport:

Trip Planner

Search our weather history database for the weather conditions in past years. The results will help you decide how hot, cold, wet, or windy it might be!

Date:

Astronomy

Sep. 02, 2013 Rise Set
Actual Time 6:55 AM CDT 7:40 PM CDT
Civil Twilight 6:31 AM CDT 8:05 PM CDT
Nautical Twilight 6:02 AM CDT 8:34 PM CDT
Astronomical Twilight 5:32 AM CDT 9:04 PM CDT
Moon 4:20 AM CDT (9/2) 5:50 PM CDT (9/2)
Length of Visible Light 13h 34m
Length of Day
12h 45m
Waning Crescent, 8% of the Moon is Illuminated
Sep 2
Waning Crescent
Sep 5
New
Sep 12
First Quarter
Sep 19
Full
Sep 26
Last Quarter

Hourly Weather History & Observations

Time (CDT) Temp. Heat Index Dew Point Humidity Pressure Visibility Wind Dir Wind Speed Gust Speed Precip Events Conditions
12:53 AM 78.1 °F - 73.0 °F 84% 29.88 in 10.0 mi South 4.6 mph - N/A   Clear
1:53 AM 78.1 °F - 73.0 °F 84% 29.88 in 10.0 mi SSW 4.6 mph - N/A   Clear
2:53 AM 75.9 °F - 73.0 °F 91% 29.88 in 10.0 mi South 4.6 mph - N/A   Clear
3:53 AM 75.0 °F - 73.0 °F 94% 29.90 in 10.0 mi Calm Calm - N/A   Clear
4:53 AM 73.0 °F - 72.0 °F 96% 29.90 in 10.0 mi SSE 4.6 mph - N/A   Clear
5:53 AM 73.0 °F - 72.0 °F 96% 29.90 in 10.0 mi SSE 3.5 mph - N/A   Clear
6:53 AM 73.0 °F - 73.0 °F 100% 29.92 in 10.0 mi Calm Calm - N/A   Clear
7:53 AM 75.0 °F - 73.9 °F 96% 29.94 in 10.0 mi Calm Calm - N/A   Clear
8:28 AM 77.0 °F - 73.4 °F 89% 29.97 in 10.0 mi Calm Calm - N/A   Mostly Cloudy
8:50 AM 80.6 °F 86.2 °F 75.2 °F 84% 29.97 in 10.0 mi Variable 5.8 mph - N/A   Scattered Clouds
8:53 AM 80.1 °F 85.1 °F 75.0 °F 85% 29.96 in 10.0 mi WSW 5.8 mph - N/A   Partly Cloudy
9:53 AM 84.9 °F 93.3 °F 75.0 °F 72% 29.98 in 10.0 mi WSW 6.9 mph - N/A   Scattered Clouds
10:53 AM 87.1 °F 93.6 °F 72.0 °F 61% 29.99 in 10.0 mi Variable 4.6 mph - N/A   Scattered Clouds
11:53 AM 90.0 °F 96.9 °F 72.0 °F 55% 29.96 in 10.0 mi NNW 8.1 mph - N/A   Partly Cloudy
12:53 PM 93.0 °F 99.0 °F 70.0 °F 47% 29.94 in 10.0 mi West 4.6 mph - N/A   Partly Cloudy
1:53 PM 93.9 °F 98.6 °F 68.0 °F 43% 29.91 in 10.0 mi Calm Calm - N/A   Clear
2:53 PM 93.9 °F 97.5 °F 66.9 °F 41% 29.88 in 10.0 mi East 4.6 mph - N/A   Clear
3:53 PM 97.0 °F 100.4 °F 66.0 °F 36% 29.85 in 10.0 mi Calm Calm - N/A   Mostly Cloudy
4:53 PM 89.1 °F 94.1 °F 70.0 °F 53% 29.84 in 10.0 mi NNE 8.1 mph 18.4 mph N/A   Scattered Clouds
5:09 PM 89.6 °F 96.2 °F 71.6 °F 55% 29.86 in 10.0 mi NNE 4.6 mph - N/A Thunderstorm Partly Cloudy
5:24 PM 87.8 °F 93.8 °F 71.6 °F 58% 29.86 in 10.0 mi NE 5.8 mph - N/A   Clear
5:53 PM 86.0 °F 90.7 °F 70.0 °F 59% 29.84 in 10.0 mi ENE 5.8 mph - N/A   Clear
6:53 PM 86.0 °F 90.7 °F 70.0 °F 59% 29.85 in 10.0 mi Calm Calm - N/A   Clear
7:53 PM 82.0 °F 86.3 °F 71.1 °F 69% 29.85 in 10.0 mi ENE 3.5 mph - N/A   Clear
8:53 PM 79.0 °F - 71.1 °F 77% 29.87 in 10.0 mi Calm Calm - N/A   Clear
9:53 PM 78.1 °F - 71.1 °F 79% 29.87 in 10.0 mi Calm Calm - N/A   Clear
10:53 PM 79.0 °F - 69.1 °F 72% 29.90 in 10.0 mi SE 4.6 mph - N/A   Clear
11:53 PM 79.0 °F - 71.1 °F 77% 29.91 in 10.0 mi South 3.5 mph - N/A   Scattered Clouds